National Weather Service Hourly Weather Roundup
NOAA NWS Hourly Roundups by Site
NOAA NWS Hourly Roundups by Site
Regional Weather Roundup for Sacramento, CA

To Select Another Site Choose from List

Select Site:  

000
ASUS46 KSTO 120715
RWRCA

NORTHERN AND CENTRAL CA REGIONAL WEATHER ROUNDUP
NATIONAL WEATHER SERVICE SACRAMENTO CA
1100 PM PST TUE DEC 11 2018

NOTE: FAIR INDICATES FEW OR NO CLOUDS BELOW 12,000 FEET WITH NO
SIGNIFICANT WEATHER AND/OR OBSTRUCTIONS TO VISIBILITY.

CAZ001-003-120800-
NORTHWEST AREA

CITY           SKY/WX    TMP DP  RH WIND       PRES   REMARKS
CRESCENT CITY  CLOUDY    51  46  83 NW15G23   30.28R
UKIAH          CLOUDY    51  47  86 E3        30.20R
$$

CAZ006-505>513-120800-
BAY AREA

CITY           SKY/WX    TMP DP  RH WIND       PRES   REMARKS
SANTA ROSA     CLOUDY    47  45  93 CALM      30.19R
SAN RAFAEL     N/A       53  MM  MM MISG
NAPA           MOCLDY    43  40  89 N6        30.21R
CONCORD        MOCLDY    50  41  71 SE6       30.19F
OAKLAND CITY   N/A       50  MM  MM MISG
OAKLAND        MOCLDY    50  45  83 E5        30.21F
SAN FRAN CITY  N/A       52  MM  84 MISG
SAN FRAN ARPT  MOCLDY    56  52  86 W9        30.19F
LIVERMORE      MOCLDY    43  38  82 NE3       30.20S
HAYWARD        MOCLDY    50  44  80 CALM      30.20F
REDWOOD CITY   N/A       47  MM  88 MISG
MOFFETT ARPT   CLOUDY    49  41  74 CALM      30.22S
SAN JOSE ARPT  MOCLDY    48  40  73 SE6       30.21F
$$
CAZ034-037-514>518-120800-
CENTRAL COAST

CITY           SKY/WX    TMP DP  RH WIND       PRES   REMARKS
WATSONVILLE    CLEAR     45  40  82 NW5       30.22S
SALINAS        CLEAR     45  41  86 CALM      30.21S
MONTEREY       CLEAR     48  45  89 S6        30.22S
SAN LUIS OBISP CLEAR     51  39  63 NW9       30.16R
SANTA MARIA    CLEAR     49  39  68 W5        30.15R
$$
CAZ015-016-120800-
NORTHERN SACRAMENTO VALLEY

CITY           SKY/WX    TMP DP  RH WIND       PRES   REMARKS
REDDING        CLOUDY    49  43  80 CALM      30.16R
RED BLUFF      CLOUDY    48  42  80 SW5       30.18R
OROVILLE       MOCLDY    49  43  80 E7        30.22R
$$
CAZ016>018-120800-
SOUTHERN SACRAMENTO VALLEY

CITY           SKY/WX    TMP DP  RH WIND       PRES   REMARKS
AUBURN         CLEAR     45  41  87 SE7       30.17S
BEALE AFB      CLOUDY    48  41  77 E5        30.19R
LINCOLN        FAIR      45  41  87 E6        30.17F
MARYSVILLE     CLOUDY    46  43  89 N3        30.21R
SAC INTL ARPT  MOCLDY    48  43  82 S8        30.19R
MATHER AIRPORT PTCLDY    45  41  87 E3        30.20S
DOWNTOWN SAC   N/A       46  MM  MM MISG
SAC EXEC ARPT  MOCLDY    48  43  82 SE8       30.19F
VACAVILLE      MOCLDY    50  42  74 SE6       30.19S
TRAVIS AFB     MOCLDY    46  39  77 S3        30.19R
$$
CAZ019>021-120800-
SAN JOAQUIN VALLEY

CITY           SKY/WX    TMP DP  RH WIND       PRES   REMARKS
STOCKTON       MOCLDY    44  40  85 SE7       30.19S FOG
MODESTO        PTCLDY    44  41  89 E5        30.21S
MERCED         CLEAR     41  39  93 E5        30.22S
LEMOORE        MOCLDY    39  38  96 VRB7      30.23F FOG     WCI  34
FRESNO         MOCLDY    43  39  86 CALM      30.23F
HANFORD        CLOUDY    47  43  86 CALM      30.24F FOG
PORTERVILLE    CLOUDY    50  43  77 CALM      30.25S
BAKERSFIELD    CLOUDY    48  42  80 NW7       30.23R
$$
CAZ011-012-071-120800-
NORTHERN MOUNTAINS

CITY           SKY/WX    TMP DP  RH WIND       PRES   REMARKS
YREKA          MOCLDY    40  34  79 VRB3      30.10R
MOUNT SHASTA   CLOUDY    40  34  79 VRB3      30.09R
ALTURAS        CLOUDY    38  32  79 W7        30.03S WCI  33
$$
CAZ011-012-071-120800-
SIERRA NEVADA MTNS

CITY           SKY/WX    TMP DP  RH WIND       PRES   REMARKS
BLUE CANYON    MOCLDY    41  31  67 S3        30.18S
TRUCKEE        MOCLDY    28  27  93 CALM      30.15F
TAHOE VLY ARPT PTCLDY    40  21  46 S14       30.15S WCI  32
MAMMOTH LAKES  FAIR      14  10  84 CALM      30.20F
$$


 

View Past Reports for Sacramento, CA.

Products Courtesy of NOAA-NWS
NWS Information Parsing Script by Ken True at Saratoga Weather - Script by SE Lincoln Weather.

powered by Cumulus v1.9.3 (1059)
Ambient Weather VWS v14.00
Top Contact Website Map Copyright © 2007 - 2018 Foresthillweather.com Never base important decisions on this or any weather information obtained from the Internet